Date String (YYYY-MM-DD hh:mm:ss) UTC,Instrument flags,Ambient pressure (hPa),Sample flow (lpm),Bypass flow (lpm),Sample temperature (°C),Ambient temperature (°C),ASC tube jacket temperature (°C),LED temperature (°C),Box temperature (°C),Sample RH (%),Span deviation,Mass concentration (μg/m³),Mass concentration (μg/m³),Mass concentration (μg/m³)
DateTimeUTC,F1_M11,P_M11,Q1_M11,Q2_M11,T1_M11,T2_M11,T3_M11,T4_M11,T5_M11,U1_M11,ZSPAN_M11,X2_M11,X0_M11,X1_M11
2022-03-18 00:00:00,,0828.0,5.01,0.00,21.9,21.3,00.0,30.8,23.6,19.0,0000.0,0002.35,0003.29,0002.00
2022-03-18 00:01:00,,0828.0,4.99,0.00,21.9,21.3,00.0,30.8,23.7,18.9,0000.0,0002.38,0003.30,0002.02
2022-03-18 00:02:00,,0828.0,5.00,0.00,21.9,21.3,00.0,30.8,23.7,18.9,0000.0,0002.38,0003.37,0002.03
2022-03-18 00:03:00,,0828.0,5.01,0.00,21.9,21.3,00.0,30.8,23.6,19.0,0000.0,0002.37,0003.35,0002.04
2022-03-18 00:04:00,,0828.0,5.01,0.00,21.9,21.3,00.0,30.8,23.7,19.0,0000.0,0002.40,0003.41,0002.08
2022-03-18 00:05:00,,0828.0,5.00,0.00,21.9,21.3,00.0,30.8,23.7,19.0,0000.0,0002.45,0003.44,0002.12
2022-03-18 00:06:00,,0828.1,4.98,0.00,21.9,21.3,00.0,30.8,23.7,19.1,0000.0,0002.52,0003.49,0002.19
2022-03-18 00:07:00,,0828.0,5.01,0.00,21.9,21.3,00.0,30.8,23.7,19.0,0000.0,0002.54,0003.44,0002.24
2022-03-18 00:08:00,,0828.0,5.00,0.00,21.9,21.3,00.0,30.9,23.7,18.9,0000.0,0002.62,0004.23,0002.30
2022-03-18 00:09:00,,0827.9,5.00,0.00,21.9,21.3,00.0,30.9,23.7,18.8,0000.0,0002.67,0004.28,0002.37
2022-03-18 00:10:00,,0828.0,4.99,0.00,21.9,21.3,00.0,30.9,23.7,18.7,0000.0,0002.69,0004.24,0002.42
2022-03-18 00:11:00,,0828.1,5.00,0.00,21.9,21.3,00.0,30.9,23.7,18.7,0000.0,0002.74,0004.36,0002.47
2022-03-18 00:12:00,,0828.2,4.99,0.00,21.9,21.3,00.0,30.9,23.7,18.8,0000.0,0002.79,0004.62,0002.51
2022-03-18 00:13:00,,0828.1,5.00,0.00,21.9,21.3,00.0,30.9,23.7,18.8,0000.0,0002.85,0004.89,0002.55
2022-03-18 00:14:00,,0828.2,5.00,0.00,21.9,21.3,00.0,30.9,23.6,18.8,0000.0,0002.91,0005.02,0002.60
2022-03-18 00:15:00,,0828.0,5.00,0.00,21.9,21.3,00.0,30.9,23.6,18.8,0000.0,0002.95,0005.06,0002.62
2022-03-18 00:16:00,,0828.1,5.00,0.00,21.9,21.3,00.0,30.9,23.7,18.9,0000.0,0002.99,0005.11,0002.65
2022-03-18 00:17:00,,0828.0,5.00,0.00,21.9,21.3,00.0,30.9,23.7,18.9,0000.0,0003.00,0005.15,0002.66
2022-03-18 00:18:00,,0828.1,5.00,0.00,21.9,21.2,00.0,30.9,23.6,19.0,0000.0,0003.03,0005.27,0002.66
2022-03-18 00:19:00,,0828.1,5.01,0.00,21.9,21.2,00.0,30.9,23.6,19.0,0000.0,0002.95,0004.60,0002.64
2022-03-18 00:20:00,,0828.0,5.00,0.00,21.9,21.2,00.0,30.9,23.6,19.1,0000.0,0002.92,0004.40,0002.60
2022-03-18 00:21:00,,0828.0,4.99,0.00,21.9,21.2,00.0,30.9,23.6,19.1,0000.0,0002.92,0004.44,0002.58
2022-03-18 00:22:00,,0828.0,5.01,0.00,21.9,21.2,00.0,30.9,23.6,19.1,0000.0,0002.92,0004.42,0002.57
2022-03-18 00:23:00,,0828.1,5.00,0.00,21.9,21.2,00.0,30.9,23.6,19.1,0000.0,0002.90,0004.18,0002.55
2022-03-18 00:24:00,,0828.1,4.99,0.00,22.0,21.6,00.0,30.9,23.8,19.1,0000.0,0002.82,0003.88,0002.52
2022-03-18 00:25:00,,0828.1,5.01,0.00,22.1,22.4,00.0,31.0,24.1,19.0,0000.0,0002.77,0003.56,0002.49
2022-03-18 00:26:00,,0828.1,5.00,0.00,22.2,22.8,00.0,31.0,24.3,18.8,0000.0,0002.70,0003.42,0002.46
2022-03-18 00:27:00,,0828.1,4.99,0.00,22.3,22.7,00.0,31.0,24.3,18.8,0000.0,0002.67,0003.39,0002.42
2022-03-18 00:28:00,,0828.1,5.01,0.00,22.3,22.5,00.0,31.1,24.2,18.8,0000.0,0002.70,0003.48,0002.42
2022-03-18 00:29:00,,0828.1,5.01,0.00,22.3,22.3,00.0,31.1,24.1,18.8,0000.0,0002.67,0003.39,0002.41
2022-03-18 00:30:00,,0828.2,5.01,0.00,22.3,22.2,00.0,31.1,24.1,18.8,0000.0,0002.71,0003.60,0002.43
2022-03-18 00:31:00,,0828.1,5.00,0.00,22.3,22.1,00.0,31.1,24.1,18.8,0000.0,0002.80,0003.79,0002.46
2022-03-18 00:32:00,,0828.1,5.00,0.00,22.3,21.9,00.0,31.1,24.1,18.8,0000.0,0002.85,0003.86,0002.47
2022-03-18 00:33:00,,0828.2,5.00,0.00,22.2,21.9,00.0,31.2,24.0,18.8,0000.0,0002.86,0003.88,0002.49
2022-03-18 00:34:00,,0828.1,5.00,0.00,22.2,21.8,00.0,31.2,24.0,18.8,0000.0,0002.90,0003.95,0002.53
2022-03-18 00:35:00,,0828.1,5.00,0.00,22.2,21.7,00.0,31.2,24.0,18.8,0000.0,0002.97,0004.10,0002.57
2022-03-18 00:36:00,,0828.2,5.00,0.00,22.2,21.7,00.0,31.2,24.0,18.8,0000.0,0003.06,0004.24,0002.63
2022-03-18 00:37:00,,0828.2,4.99,0.00,22.2,21.6,00.0,31.2,24.0,18.8,0000.0,0003.12,0004.34,0002.68
2022-03-18 00:38:00,,0828.2,5.01,0.00,22.2,21.6,00.0,31.2,23.9,18.8,0000.0,0003.15,0004.41,0002.71
2022-03-18 00:39:00,,0828.1,5.00,0.00,22.2,21.6,00.0,31.2,23.9,18.8,0000.0,0003.14,0004.29,0002.75
2022-03-18 00:40:00,,0828.2,5.00,0.00,22.2,21.6,00.0,31.2,23.9,18.8,0000.0,0003.17,0004.34,0002.80
2022-03-18 00:41:00,,0828.1,5.00,0.00,22.2,21.5,00.0,31.2,23.9,18.8,0000.0,0003.17,0004.17,0002.83
2022-03-18 00:42:00,,0828.1,5.00,0.00,22.2,21.5,00.0,31.2,23.9,18.8,0000.0,0003.14,0004.02,0002.84
2022-03-18 00:43:00,,0828.2,5.00,0.00,22.2,21.5,00.0,31.2,23.9,18.8,0000.0,0003.15,0004.37,0002.86
2022-03-18 00:44:00,,0828.1,5.00,0.00,22.1,21.5,00.0,31.2,23.9,18.8,0000.0,0003.17,0004.51,0002.87
2022-03-18 00:45:00,,0828.2,5.01,0.00,22.1,21.5,00.0,31.2,23.9,18.7,0000.0,0003.18,0004.57,0002.88
2022-03-18 00:46:00,,0828.2,5.00,0.00,22.1,21.5,00.0,31.2,23.9,18.7,0000.0,0003.19,0004.58,0002.89
2022-03-18 00:47:00,,0828.2,5.00,0.00,22.1,21.5,00.0,31.2,23.9,18.7,0000.0,0003.18,0004.52,0002.89
2022-03-18 00:48:00,,0828.3,4.99,0.00,22.1,21.5,00.0,31.1,23.9,18.7,0000.0,0003.17,0004.51,0002.88
2022-03-18 00:49:00,,0828.3,4.99,0.00,22.1,21.4,00.0,31.1,23.9,18.7,0000.0,0003.18,0004.57,0002.89
2022-03-18 00:50:00,,0828.3,5.01,0.00,22.1,21.4,00.0,31.1,23.8,18.7,0000.0,0003.21,0004.71,0002.91
2022-03-18 00:51:00,,0828.3,4.99,0.00,22.1,21.4,00.0,31.1,23.9,18.7,0000.0,0003.23,0004.88,0002.91
2022-03-18 00:52:00,,0828.3,5.00,0.00,22.1,21.4,00.0,31.1,23.9,18.7,0000.0,0003.23,0004.87,0002.92
2022-03-18 00:53:00,,0828.3,5.01,0.00,22.1,21.4,00.0,31.1,23.9,18.7,0000.0,0003.25,0004.94,0002.93
2022-03-18 00:54:00,,0828.3,4.99,0.00,22.1,21.4,00.0,31.1,23.8,18.7,0000.0,0003.26,0004.84,0002.94
2022-03-18 00:55:00,,0828.3,5.00,0.00,22.1,21.4,00.0,31.1,23.8,18.7,0000.0,0003.27,0004.61,0002.95
2022-03-18 00:56:00,,0828.4,5.02,0.00,22.1,21.4,00.0,31.1,23.8,18.7,0000.0,0003.28,0004.66,0002.95
2022-03-18 00:57:00,,0828.4,5.00,0.00,22.1,21.4,00.0,31.1,23.8,18.7,0000.0,0003.26,0004.71,0002.94
2022-03-18 00:58:00,,0828.3,5.00,0.00,22.1,21.3,00.0,31.1,23.8,18.7,0000.0,0003.26,0005.38,0002.94
2022-03-18 00:59:00,,0828.3,5.01,0.00,22.1,21.3,00.0,31.1,23.8,18.7,0000.0,0003.29,0005.56,0002.94
